Time,TemperatureF,DewpointF,PressureIn,WindDirection,WindDirectionDegrees,WindSpeedMPH,WindSpeedGustMPH,Humidity,HourlyPrecipIn,Conditions,Clouds,dailyrainin,SoftwareType,DateUTC
2013-03-11 00:14:00,32.6,29.0,25.71,SSE,162,0.0,-999.0,86,-99.99,,,0.00,weatherlink.com 1.10,2013-03-11 04:14:00,
2013-03-11 00:29:00,32.1,29.0,25.71,SSE,162,0.0,-999.0,87,-99.99,,,0.00,weatherlink.com 1.10,2013-03-11 04:29:00,
2013-03-11 00:44:00,31.6,29.0,23.47,SSE,161,0.0,-999.0,88,-99.99,,,0.00,weatherlink.com 1.10,2013-03-11 04:44:00,
2013-03-11 00:59:00,32.0,29.0,23.47,SSE,163,0.0,-999.0,89,-99.99,,,0.00,weatherlink.com 1.10,2013-03-11 04:59:00,
2013-03-11 01:14:00,32.1,29.0,23.47,SSE,161,0.0,-999.0,89,-99.99,,,0.00,weatherlink.com 1.10,2013-03-11 05:14:00,
2013-03-11 01:29:00,32.1,29.0,24.90,SSE,163,0.0,-999.0,89,-99.99,,,0.00,weatherlink.com 1.10,2013-03-11 05:29:00,
2013-03-11 01:44:00,32.3,30.0,24.90,SSE,163,0.0,-999.0,89,-99.99,,,0.00,weatherlink.com 1.10,2013-03-11 05:44:00,
2013-03-11 01:59:00,31.9,29.0,24.90,SSE,162,0.0,-999.0,89,-99.99,,,0.00,weatherlink.com 1.10,2013-03-11 05:59:00,
2013-03-11 02:14:00,31.9,29.0,24.90,SSE,162,0.0,-999.0,90,-99.99,,,0.00,weatherlink.com 1.10,2013-03-11 06:14:00,
2013-03-11 02:29:00,32.5,30.0,24.90,SSE,163,0.0,-999.0,90,-99.99,,,0.00,weatherlink.com 1.10,2013-03-11 06:29:00,
2013-03-11 02:44:00,32.9,30.0,24.90,SSE,162,0.0,-999.0,90,-99.99,,,0.00,weatherlink.com 1.10,2013-03-11 06:44:00,
2013-03-11 02:59:00,32.6,30.0,24.90,SSE,162,0.0,-999.0,89,-99.99,,,0.00,weatherlink.com 1.10,2013-03-11 06:59:00,
2013-03-11 03:14:00,32.7,30.0,24.90,SSE,163,0.0,-999.0,89,-99.99,,,0.00,weatherlink.com 1.10,2013-03-11 07:14:00,
2013-03-11 03:29:00,32.8,30.0,27.95,SSE,163,0.0,-999.0,89,-99.99,,,0.00,weatherlink.com 1.10,2013-03-11 07:29:00,
2013-03-11 03:44:00,33.1,31.0,27.95,SSE,163,0.0,-999.0,90,-99.99,,,0.00,weatherlink.com 1.10,2013-03-11 07:44:00,
2013-03-11 03:59:00,33.6,31.0,27.95,WSW,241,0.0,-999.0,89,-99.99,,,0.00,weatherlink.com 1.10,2013-03-11 07:59:00,
2013-03-11 04:14:00,34.2,31.0,27.95,WNW,288,0.0,-999.0,89,-99.99,,,0.00,weatherlink.com 1.10,2013-03-11 08:14:00,
2013-03-11 04:29:00,34.4,31.0,24.94,WNW,290,0.0,-999.0,88,-99.99,,,0.00,weatherlink.com 1.10,2013-03-11 08:29:00,
2013-03-11 04:44:00,34.3,31.0,24.94,East,83,2.0,-999.0,88,-99.99,,,0.00,weatherlink.com 1.10,2013-03-11 08:44:00,
2013-03-11 04:59:00,34.3,31.0,24.94,SW,214,0.0,-999.0,88,-99.99,,,0.00,weatherlink.com 1.10,2013-03-11 08:59:00,
2013-03-11 05:14:00,34.2,31.0,24.85,SSE,163,0.0,-999.0,87,-99.99,,,0.00,weatherlink.com 1.10,2013-03-11 09:14:00,
2013-03-11 05:29:00,34.2,31.0,24.85,SSE,159,0.0,-999.0,88,-99.99,,,0.00,weatherlink.com 1.10,2013-03-11 09:29:00,
2013-03-11 05:44:00,33.9,31.0,24.87,SSE,163,0.0,-999.0,88,-99.99,,,0.00,weatherlink.com 1.10,2013-03-11 09:44:00,
2013-03-11 05:59:00,33.8,31.0,24.85,SSE,161,0.0,-999.0,88,-99.99,,,0.00,weatherlink.com 1.10,2013-03-11 09:59:00,
2013-03-11 06:14:00,33.8,31.0,24.86,NW,326,0.0,-999.0,88,-99.99,,,0.00,weatherlink.com 1.10,2013-03-11 10:14:00,
2013-03-11 06:29:00,33.8,31.0,24.99,West,276,0.0,-999.0,88,-99.99,,,0.00,weatherlink.com 1.10,2013-03-11 10:29:00,
2013-03-11 06:44:00,33.9,31.0,24.77,North,360,0.0,-999.0,88,-99.99,,,0.00,weatherlink.com 1.10,2013-03-11 10:44:00,
2013-03-11 06:59:00,33.8,31.0,24.77,South,177,0.0,-999.0,88,-99.99,,,0.00,weatherlink.com 1.10,2013-03-11 10:59:00,
2013-03-11 07:14:00,33.6,30.0,24.90,ESE,105,0.0,-999.0,88,-99.99,,,0.00,weatherlink.com 1.10,2013-03-11 11:14:00,
2013-03-11 07:29:00,33.7,31.0,24.86,ESE,121,0.0,-999.0,88,-99.99,,,0.00,weatherlink.com 1.10,2013-03-11 11:29:00,
2013-03-11 07:44:00,33.7,31.0,24.85,ESE,123,0.0,-999.0,88,-99.99,,,0.00,weatherlink.com 1.10,2013-03-11 11:44:00,
2013-03-11 07:59:00,33.8,31.0,24.85,ESE,122,0.0,-999.0,88,-99.99,,,0.00,weatherlink.com 1.10,2013-03-11 11:59:00,
2013-03-11 08:14:00,34.3,31.0,24.89,ESE,123,0.0,-999.0,88,-99.99,,,0.00,weatherlink.com 1.10,2013-03-11 12:14:00,
2013-03-11 08:29:00,34.7,32.0,24.84,ESE,122,0.0,-999.0,88,-99.99,,,0.00,weatherlink.com 1.10,2013-03-11 12:29:00,
2013-03-11 08:59:00,37.0,33.0,24.84,East,91,0.0,-999.0,84,-99.99,,,0.00,weatherlink.com 1.10,2013-03-11 12:59:00,
2013-03-11 09:14:00,38.0,33.0,24.82,SE,133,1.0,-999.0,81,-99.99,,,0.00,weatherlink.com 1.10,2013-03-11 13:14:00,
2013-03-11 09:29:00,39.1,33.0,24.83,SE,136,0.0,-999.0,79,-99.99,,,0.00,weatherlink.com 1.10,2013-03-11 13:29:00,
2013-03-11 09:44:00,40.3,34.0,24.82,SSE,167,0.0,-999.0,78,-99.99,,,0.00,weatherlink.com 1.10,2013-03-11 13:44:00,
2013-03-11 09:59:00,40.6,34.0,24.83,East,94,0.0,-999.0,76,-99.99,,,0.00,weatherlink.com 1.10,2013-03-11 13:59:00,
2013-03-11 10:14:00,41.2,34.0,24.86,SSE,156,2.0,-999.0,75,-99.99,,,0.00,weatherlink.com 1.10,2013-03-11 14:14:00,
2013-03-11 10:28:00,42.7,35.0,24.86,West,261,6.0,-999.0,73,-99.99,,,0.00,weatherlink.com 1.10,2013-03-11 14:28:00,
2013-03-11 10:43:00,42.7,34.0,24.87,South,170,1.0,-999.0,72,-99.99,,,0.00,weatherlink.com 1.10,2013-03-11 14:43:00,
2013-03-11 10:59:00,42.6,34.0,24.86,NW,317,0.0,-999.0,72,-99.99,,,0.00,weatherlink.com 1.10,2013-03-11 14:59:00,
2013-03-11 11:14:00,43.2,35.0,28.01,NW,315,2.0,-999.0,72,-99.99,,,0.00,weatherlink.com 1.10,2013-03-11 15:14:00,
2013-03-11 11:29:00,44.2,35.0,24.97,NW,311,0.0,-999.0,71,-99.99,,,0.00,weatherlink.com 1.10,2013-03-11 15:29:00,
2013-03-11 11:44:00,45.5,36.0,24.97,ESE,113,0.0,-999.0,69,-99.99,,,0.00,weatherlink.com 1.10,2013-03-11 15:44:00,
2013-03-11 11:59:00,47.2,35.0,24.97,WNW,294,5.0,-999.0,64,-99.99,,,0.00,weatherlink.com 1.10,2013-03-11 15:59:00,
2013-03-11 12:14:00,48.3,35.0,24.97,WSW,250,0.0,-999.0,61,-99.99,,,0.00,weatherlink.com 1.10,2013-03-11 16:14:00,
2013-03-11 12:29:00,47.8,35.0,24.87,WSW,237,0.0,-999.0,61,-99.99,,,0.00,weatherlink.com 1.10,2013-03-11 16:29:00,
2013-03-11 12:44:00,49.0,35.0,24.87,NW,306,2.0,-999.0,60,-99.99,,,0.00,weatherlink.com 1.10,2013-03-11 16:44:00,
2013-03-11 12:59:00,49.4,36.0,24.87,NW,318,0.0,-999.0,61,-99.99,,,0.00,weatherlink.com 1.10,2013-03-11 16:59:00,
2013-03-11 13:14:00,50.2,35.0,24.87,NW,323,0.0,-999.0,57,-99.99,,,0.00,weatherlink.com 1.10,2013-03-11 17:14:00,
2013-03-11 13:29:00,50.7,35.0,24.87,WNW,292,0.0,-999.0,56,-99.99,,,0.00,weatherlink.com 1.10,2013-03-11 17:29:00,
2013-03-11 13:44:00,50.3,35.0,24.87,North,5,0.0,-999.0,56,-99.99,,,0.00,weatherlink.com 1.10,2013-03-11 17:44:00,
2013-03-11 13:59:00,50.1,34.0,24.87,NW,313,0.0,-999.0,55,-99.99,,,0.00,weatherlink.com 1.10,2013-03-11 17:59:00,
2013-03-11 14:14:00,50.2,35.0,24.92,South,173,0.0,-999.0,56,-99.99,,,0.00,weatherlink.com 1.10,2013-03-11 18:14:00,
2013-03-11 14:29:00,49.8,35.0,24.92,West,277,3.0,-999.0,57,-99.99,,,0.00,weatherlink.com 1.10,2013-03-11 18:29:00,
2013-03-11 14:44:00,50.6,35.0,26.59,WSW,241,1.0,-999.0,56,-99.99,,,0.00,weatherlink.com 1.10,2013-03-11 18:44:00,
2013-03-11 14:59:00,51.6,36.0,24.87,SSW,198,0.0,-999.0,55,-99.99,,,0.00,weatherlink.com 1.10,2013-03-11 18:59:00,
2013-03-11 15:14:00,51.7,35.0,24.87,SSE,153,0.0,-999.0,53,-99.99,,,0.00,weatherlink.com 1.10,2013-03-11 19:14:00,
2013-03-11 15:29:00,51.6,35.0,24.87,ENE,74,0.0,-999.0,54,-99.99,,,0.00,weatherlink.com 1.10,2013-03-11 19:29:00,
2013-03-11 15:44:00,52.1,36.0,24.87,WSW,254,4.0,-999.0,54,-99.99,,,0.00,weatherlink.com 1.10,2013-03-11 19:44:00,
2013-03-11 15:59:00,51.9,36.0,24.87,SSE,153,0.0,-999.0,54,-99.99,,,0.00,weatherlink.com 1.10,2013-03-11 19:59:00,
2013-03-11 16:14:00,51.8,36.0,25.11,NE,41,1.0,-999.0,56,-99.99,,,0.00,weatherlink.com 1.10,2013-03-11 20:14:00,
2013-03-11 16:29:00,51.5,37.0,24.89,SSE,161,1.0,-999.0,58,-99.99,,,0.00,weatherlink.com 1.10,2013-03-11 20:29:00,
2013-03-11 16:44:00,50.9,38.0,24.89,SE,136,1.0,-999.0,61,-99.99,,,0.00,weatherlink.com 1.10,2013-03-11 20:44:00,
2013-03-11 16:59:00,50.3,38.0,24.89,WSW,239,0.0,-999.0,64,-99.99,,,0.00,weatherlink.com 1.10,2013-03-11 20:59:00,
2013-03-11 17:14:00,50.3,38.0,24.89,ESE,107,0.0,-999.0,64,-99.99,,,0.00,weatherlink.com 1.10,2013-03-11 21:14:00,
2013-03-11 17:29:00,50.0,39.0,24.89,SSE,152,0.0,-999.0,66,-99.99,,,0.00,weatherlink.com 1.10,2013-03-11 21:29:00,
2013-03-11 17:44:00,49.7,39.0,24.89,SE,126,0.0,-999.0,67,-99.99,,,0.00,weatherlink.com 1.10,2013-03-11 21:44:00,
2013-03-11 17:59:00,49.0,39.0,24.89,NNE,21,1.0,-999.0,69,-99.99,,,0.00,weatherlink.com 1.10,2013-03-11 21:59:00,
2013-03-11 18:14:00,48.3,39.0,24.89,North,360,0.0,-999.0,70,-99.99,,,0.00,weatherlink.com 1.10,2013-03-11 22:14:00,
2013-03-11 18:29:00,47.4,39.0,24.89,SE,137,0.0,-999.0,72,-99.99,,,0.00,weatherlink.com 1.10,2013-03-11 22:29:00,
2013-03-11 18:44:00,46.4,38.0,24.89,SE,140,0.0,-999.0,73,-99.99,,,0.00,weatherlink.com 1.10,2013-03-11 22:44:00,
2013-03-11 18:59:00,45.6,38.0,24.89,South,171,0.0,-999.0,75,-99.99,,,0.00,weatherlink.com 1.10,2013-03-11 22:59:00,
2013-03-11 19:14:00,45.0,39.0,24.89,SE,132,2.0,-999.0,78,-99.99,,,0.00,weatherlink.com 1.10,2013-03-11 23:14:00,
2013-03-11 19:29:00,44.4,38.0,24.89,South,188,0.0,-999.0,79,-99.99,,,0.00,weatherlink.com 1.10,2013-03-11 23:29:00,
2013-03-11 19:44:00,43.8,38.0,24.89,SSE,160,0.0,-999.0,81,-99.99,,,0.00,weatherlink.com 1.10,2013-03-11 23:44:00,
2013-03-11 19:59:00,43.6,38.0,24.89,East,101,0.0,-999.0,81,-99.99,,,0.00,weatherlink.com 1.10,2013-03-11 23:59:00,
2013-03-11 20:14:00,43.2,38.0,24.89,SSE,149,0.0,-999.0,82,-99.99,,,0.00,weatherlink.com 1.10,2013-03-12 00:14:00,
2013-03-11 20:29:00,43.1,38.0,24.89,WSW,257,0.0,-999.0,83,-99.99,,,0.00,weatherlink.com 1.10,2013-03-12 00:29:00,
2013-03-11 20:44:00,42.7,38.0,24.89,SSE,152,2.0,-999.0,84,-99.99,,,0.00,weatherlink.com 1.10,2013-03-12 00:44:00,
2013-03-11 20:59:00,42.4,38.0,24.89,SE,146,0.0,-999.0,84,-99.99,,,0.00,weatherlink.com 1.10,2013-03-12 00:59:00,
2013-03-11 21:14:00,42.1,38.0,24.89,South,178,0.0,-999.0,85,-99.99,,,0.00,weatherlink.com 1.10,2013-03-12 01:14:00,
2013-03-11 21:29:00,41.7,38.0,24.89,SE,130,0.0,-999.0,86,-99.99,,,0.00,weatherlink.com 1.10,2013-03-12 01:29:00,
2013-03-11 21:44:00,41.4,38.0,24.89,SE,136,0.0,-999.0,86,-99.99,,,0.00,weatherlink.com 1.10,2013-03-12 01:44:00,
2013-03-11 21:59:00,41.2,38.0,24.83,SSW,199,0.0,-999.0,87,-99.99,,,0.00,weatherlink.com 1.10,2013-03-12 01:59:00,
2013-03-11 22:14:00,41.3,38.0,24.83,ESE,123,0.0,-999.0,88,-99.99,,,0.00,weatherlink.com 1.10,2013-03-12 02:14:00,
2013-03-11 22:29:00,41.1,38.0,24.83,SE,130,0.0,-999.0,88,-99.99,,,0.00,weatherlink.com 1.10,2013-03-12 02:29:00,
2013-03-11 22:44:00,41.1,38.0,25.06,NE,56,0.0,-999.0,89,-99.99,,,0.00,weatherlink.com 1.10,2013-03-12 02:44:00,
2013-03-11 22:59:00,40.7,38.0,25.06,ENE,68,0.0,-999.0,89,-99.99,,,0.00,weatherlink.com 1.10,2013-03-12 02:59:00,
2013-03-11 23:14:00,40.6,38.0,25.06,East,80,0.0,-999.0,90,-99.99,,,0.00,weatherlink.com 1.10,2013-03-12 03:14:00,
2013-03-11 23:29:00,40.5,38.0,25.06,SE,139,0.0,-999.0,90,-99.99,,,0.00,weatherlink.com 1.10,2013-03-12 03:29:00,
2013-03-11 23:44:00,40.8,38.0,25.06,SSE,157,0.0,-999.0,91,-99.99,,,0.00,weatherlink.com 1.10,2013-03-12 03:44:00,
2013-03-11 23:59:00,40.7,38.0,25.06,SE,143,0.0,-999.0,91,-99.99,,,0.00,weatherlink.com 1.10,2013-03-12 03:59:00,